10P/Tempel 2 (2010)

Japanese version
Home page
Updated on January 6, 2021

---------------------------------------------------------------------

* Profile

* Pictures

* Orbital Elements

Epoch 2010 July 23.0 TT = JDT 2455400.5
T 2010 July 4.90471 TT                                  MPC
q   1.4226959            (2000.0)            P               Q
n   0.18337620     Peri.  195.66026     +0.68293832     +0.70686808
a   3.0683677      Node   117.82550     -0.64584542     +0.70212145
e   0.5363346      Incl.   12.02232     -0.34129013     +0.08580786
P   5.37
From 2862 observations 1972 Feb. 10-2012 Jan. 22, mean residual 0".7.
     Nongravitational parameters A1 = +0.03, A2 = +0.0007.

* Finding Charts

* Magnitudes Graph

        H = 13.6  G = 0.15              [    ,-170]  (             - 2010 Jan. 15)
        m1 =  4.6 + 5 log d + 35 log r  [-170,   0]  (2010 Jan. 15 - 2010 July  4)
        m1 =  7.2 + 5 log d + 18 log r  [   0, 425]  (2010 July  4 - 2011 Sept. 2)
        H = 13.6  G = 0.15              [ 425,    ]  (2011 Sept. 2 -             )

---------------------------------------------------------------------

The orbital elements are published on M.P.E.C. 2012-J16.
The charts are made with StellaNavigator Ver.2.0 for Windows (AstroArts / ASCII).
The magnitudes graphs are made with Comet for Windows.

---------------------------------------------------------------------

Copyright(C) Seiichi Yoshida (comet@aerith.net). All rights reserved.